#timestamp,LO_Frequency,Hit,StdDev 
1633154415.3,286046998.9,N
1633154435.1,286046998.7,N
1633154455.8,286047001.2,N
1633154475.7,286046998.8,N
1633154495.5,286046998.8,N
1633154515.3,286046999.6,N
1633154535.2,286046996.9,N
1633154555.9,286046999.0,N
1633154575.7,286046999.3,N
1633154595.6,286047001.0,N
1633154615.4,286046998.6,N
1633154635.2,286046996.7,N
1633154655.1,286046998.5,N
1633154656.0,286046998.5,N
1633154675.8,286046998.2,N
1633154695.6,286046998.2,N
1633154715.5,286046998.3,N
1633154735.3,286046999.0,N
1633154755.1,286047001.0,N
1633154775.9,286047000.7,N
1633154795.7,286046998.7,N
1633154815.5,286046999.4,N
1633154835.4,286047000.9,N
1633154855.2,286047000.7,N
1633154875.0,286046999.3,N
1633154875.9,286046999.3,N
1633154895.8,286047000.3,N
1633154915.6,286047000.3,N
1633154935.4,286047000.0,N
1633154955.3,286047000.4,N
1633154975.1,286047001.0,N
1633154995.8,286047000.5,N
1633155015.7,286047001.0,N
1633155035.5,286047000.8,N
1633155055.3,286046998.9,N
1633155075.2,286046998.6,N
1633155095.9,286047000.8,N
1633155115.7,286046999.2,N
1633155135.6,286046997.0,N
1633155155.4,286046998.6,N
1633155175.2,286046998.8,N
1633155195.1,286046998.2,N
1633155196.0,286046998.2,N
1633155215.8,286046999.2,N
1633155235.6,286047001.1,N
1633155255.5,286046999.6,N
1633155275.3,286046997.0,N
1633155295.1,286046996.7,N
1633155315.9,286046998.6,N
1633155335.7,286046999.4,N
1633155355.5,286046998.1,N
1633155375.4,286047001.0,N
1633155395.2,286046998.4,N
1633155415.0,286046998.6,N
1633155415.9,286046998.6,N
1633155435.8,286046998.7,N
1633155455.6,286046998.4,N
1633155475.4,286046998.6,N
1633155495.3,286047000.6,N
1633155515.1,286047000.5,N
1633155535.8,286047002.4,N
1633155555.7,286047002.5,N
1633155575.5,286047001.8,N
1633155595.3,286047002.8,N
1633155615.2,286047002.0,N
1633155635.9,286047000.3,N
1633155655.7,286047000.1,N
1633155675.6,286047002.4,N
1633155695.4,286047002.3,N
1633155715.2,286047000.0,N
1633155735.1,286047000.7,N
1633155736.0,286047000.7,N
1633155755.8,286047001.0,N
1633155775.6,286047000.9,N
1633155795.5,286047000.3,N
1633155815.3,286047000.7,N
1633155835.1,286046998.6,N
1633155855.9,286046999.3,N
1633155875.7,286046996.6,N
1633155895.5,286046999.1,N
1633155915.4,286046997.6,N
1633155935.2,286046999.1,N
1633155955.0,286046996.6,N
1633155955.9,286046996.6,N
1633155975.8,286046998.9,N
1633155995.6,286046998.6,N
1633156015.4,286047000.5,N
1633156035.3,286046998.1,N
1633156055.1,286046998.3,N
1633156075.8,286046999.0,N
1633156095.7,286046998.6,N
1633156115.5,286046999.1,N
1633156135.3,286046999.0,N
1633156155.2,286046996.6,N
1633156175.0,286046996.6,N
1633156175.9,286046996.6,N
1633156195.7,286046997.2,N
1633156215.6,286046997.2,N
1633156235.4,286046996.7,N
1633156255.2,286046997.2,N
1633156275.1,286046997.6,N
1633156276.0,286046997.6,N
1633156295.8,286046997.3,N
1633156315.6,286046997.2,N
1633156335.5,286046998.7,N
1633156355.3,286046998.5,N
1633156375.1,286046999.0,N
1633156395.9,286046996.9,N
1633156415.7,286046999.5,N
1633156435.5,286046998.1,N
1633156455.4,286046998.3,N
1633156475.2,286046998.5,N
1633156495.0,286046998.5,N
1633156495.9,286046998.5,N
1633156515.8,286046999.5,N
1633156535.6,286046999.6,N
1633156555.4,286046999.2,N
1633156575.3,286046999.1,N
1633156595.1,286046998.5,N
1633156615.8,286046999.0,N
1633156635.7,286046996.6,Y
1633156655.5,286046998.5,P
1633156675.3,286046998.3,P
1633156695.2,286046998.9,P
1633156715.9,286046998.7,Y
1633156735.7,286046998.1,P
1633156755.6,286047000.2,N
1633156775.4,286047002.0,N
1633156795.2,286047001.4,N
1633156815.1,286047002.5,N
1633156816.0,286047002.5,N
1633156835.8,286047002.7,N
1633156855.6,286047000.1,N
1633156875.5,286047002.8,N
1633156895.3,286047001.5,N
1633156915.1,286047001.4,N
1633156935.9,286047001.7,N
1633156955.7,286047001.4,N
1633156975.5,286047002.1,N
1633156995.4,286047002.2,N
1633157015.2,286047002.5,N
1633157035.0,286047001.8,N
1633157035.9,286047001.8,N
1633157055.8,286047001.4,N
1633157075.6,286047004.0,Y
1633157095.4,286047002.6,P
1633157115.3,286047004.0,P
1633157135.1,286047002.4,N
1633157155.8,286047000.2,N
1633157175.7,286047000.8,N
1633157195.5,286047000.5,N
1633157215.3,286046998.6,N
1633157235.2,286047001.1,N
1633157255.0,286046998.4,N
1633157255.9,286046998.4,N
1633157275.7,286046998.4,N
1633157295.6,286046999.8,N
1633157315.4,286047000.4,N
1633157335.2,286046999.8,N
1633157355.1,286046999.9,N
1633157356.0,286046999.9,N
1633157375.8,286047002.3,N
1633157395.6,286047002.7,N
1633157415.5,286047002.3,N
1633157435.3,286047002.3,N
1633157455.1,286047002.8,N
1633157475.9,286047000.4,N
1633157495.7,286047000.1,N
1633157515.5,286047000.0,N
1633157535.4,286046999.7,N
1633157555.2,286047000.8,N
1633157575.0,286047000.0,N
1633157575.9,286047000.0,N
1633157595.8,286047000.4,N
1633157615.6,286047001.0,N
1633157635.4,286047000.5,N
1633157655.3,286047000.7,N
1633157675.1,286046998.9,N
1633157695.8,286047000.7,N
1633157715.7,286046999.9,N
1633157735.5,286047000.2,N
1633157755.3,286046998.2,N
1633157775.2,286047000.8,N
1633157795.0,286046998.7,N
1633157795.9,286046998.7,N
1633157845.8,286047000.8,E
1633157855.7,286047001.1,N
1633157875.5,286046999.3,P
1633157895.4,286046998.6,N
1633157915.2,286046999.4,N
1633157935.0,286046998.1,N
1633157935.9,286046998.1,N
1633157955.8,286046998.1,N
1633157975.6,286047001.2,N
1633157995.4,286046998.3,N
